Location: Champseau
(45.8333°N, 1.7667°E)
Time: 18:22:54
(UTC+00:00)

ARIANE 5 R/B - Pass Details

Date: 18 April 2021
Orbit: 620 x 656 km, 98.1° (Epoch: 06 May)

Event Time Altitude Azimuth Distance (km) Brightness Sun altitude
Exits shadow 20:09:19 19° 94° (E) 1,508 4.0 -14.3°
Maximum altitude 20:10:52 23° 65° (ENE) 1,349 4.0 -14.5°
Drops below altitude 10° 20:14:20 10° 13° (NNE) 2,024 5.5 -15.0°
Sets 20:16:52 0° 359° (N) 2,930 6.6 -15.4°
